Home   Weather   Stamford   Past weeks
Flag for USA

Past Weather in Stamford, Connecticut, USA — Yesterday and Last 2 Weeks

Now
77 °F

Sunny.


Feels Like: 79 °F
Forecast: 83 / 61 °F
Wind: 6 mph from South

Location: Westchester County Airport

Current Time: Jun 24, 2019 at 7:59:42 pm

Latest Report: Jun 24, 2019 at 6:56 pm


Visibility: 10 mi

Pressure: 29.83 "Hg

Humidity: 52%

Dew Point: 58 °F

Location of StamfordLocation

Past Weather in Stamford — Graph

°F

Stamford Temperature Yesterday

Maximum temperature yesterday: 83 °F (at 3:56 pm)
Minimum temperature yesterday: 58 °F (at 3:56 am)
Average temperature yesterday: 71 °F

High & Low Weather Summary for the Past Weeks

 TemperatureHumidityPressure
High83 °F (Jun 23, 3:56 pm)100% (Jun 10, 4:56 pm)30.28 "Hg (Jun 10, 4:56 pm)
Low51 °F (Jun 12, 4:56 am)25% (Jun 24, 12:56 pm)29.41 "Hg (Jun 21, 3:56 am)
Average67 °F74%29.88 "Hg
* Reported Jun 9 6:56 pm — Jun 24 6:56 pm, Stamford. Weather by CustomWeather, © 2019

Note: Actual official high and low records may vary slightly from our data, if they occured in-between our weather recording intervals... More about our weather records

Advertising

Stamford Weather History for the Previous 24 Hours

Scroll right to see more
 ConditionsComfort  
Time TempWeatherWind HumidityBarometerVisibility
6:56 pm
Mon, Jun 24
77 °FSunny.6 mph52%29.83 "Hg10 mi
5:56 pm80 °FSunny.7 mph45%29.82 "Hg10 mi
4:56 pm82 °FSunny.6 mph41%29.84 "Hg10 mi
3:56 pm83 °FSunny.5 mph37%29.84 "Hg10 mi
2:56 pm82 °FPassing clouds.5 mph35%29.85 "Hg10 mi
1:56 pm81 °FPassing clouds.7 mph35%29.85 "Hg10 mi
12:56 pm82 °FPassing clouds.5 mph25%29.86 "Hg10 mi
11:56 am82 °FPassing clouds.N/A32%29.87 "Hg10 mi
10:56 am80 °FSunny.No wind32%29.87 "Hg10 mi
9:56 am78 °FSunny.No wind42%29.87 "Hg10 mi
8:56 am73 °FSunny.5 mph51%29.88 "Hg10 mi
7:56 am70 °FSunny.6 mph61%29.88 "Hg10 mi
6:56 am64 °FSunny.5 mph75%29.86 "Hg10 mi
5:56 am59 °FSunny.6 mph84%29.86 "Hg10 mi
4:56 am60 °FClear.5 mph86%29.86 "Hg10 mi
3:56 am61 °FClear.6 mph83%29.86 "Hg10 mi
2:56 am61 °FClear.No wind83%29.86 "Hg10 mi
1:56 am64 °FClear.5 mph81%29.86 "Hg10 mi
12:56 am65 °FClear.No wind68%29.86 "Hg10 mi
11:56 pm
Sun, Jun 23
66 °FClear.No wind70%29.87 "Hg10 mi
10:56 pm67 °FClear.No wind66%29.86 "Hg10 mi
9:56 pm70 °FClear.5 mph61%29.85 "Hg10 mi
8:56 pm72 °FClear.3 mph53%29.85 "Hg10 mi
7:56 pm77 °FSunny.3 mph42%29.84 "Hg10 mi
Weather by CustomWeather, © 2019

See weather overview